Change the Weather History Date:

Sunday, October 16, 2011

  Actual Average Record
Temperature  
Mean Temperature 61 °F -  
Max Temperature 70 °F 68 °F 90 °F (1997)
Min Temperature 53 °F 52 °F 48 °F (1998)
Degree Days  
Heating Degree Days 4    
Growing Degree Days 11 (Base 50)    
Moisture  
Dew Point 57 °F    
Average Humidity 83    
Maximum Humidity 100    
Minimum Humidity 66    
Precipitation  
Precipitation 0.00 in - - ()
Sea Level Pressure  
Sea Level Pressure 30.01 in    
Wind  
Wind Speed 4 mph (NW)    
Max Wind Speed 13 mph    
Max Gust Speed -    
Visibility 7 miles    
Events      
Averages and records for this station are not official NWS values.
T = Trace of Precipitation, MM = Missing Value Source: NWS Daily Summary

Daily Weather History Graph

Daily Weather History Graph

Search for Another Location

Airport or City:

Trip Planner

Search our weather history database for the weather conditions in past years. The results will help you decide how hot, cold, wet, or windy it might be!

Date:

Astronomy

Oct. 16, 2011 Rise Set
Actual Time 7:02 AM PDT 6:21 PM PDT
Civil Twilight 6:37 AM PDT 6:46 PM PDT
Nautical Twilight 6:07 AM PDT 7:15 PM PDT
Astronomical Twilight 5:38 AM PDT 7:44 PM PDT
Moon 9:22 PM PDT (10/16) 11:12 AM PDT (10/16)
Length of Visible Light 12h 09m
Length of Day
11h 18m
Waning Gibbous, 81% of the Moon is Illuminated
Oct 16
Waning Gibbous
Oct 19
Last Quarter
Oct 26
New
Nov 2
First Quarter
Nov 10
Full

Hourly Weather History & Observations

Time (PDT) Temp. Dew Point Humidity Pressure Visibility Wind Dir Wind Speed Gust Speed Precip Events Conditions
12:54 AM 55.9 °F - N/A% 29.98 in 7.0 mi NE 3.5 mph - N/A   Clear
1:54 AM 55.0 °F - N/A% 29.99 in 7.0 mi Calm Calm - N/A   Clear
2:54 AM 55.9 °F - N/A% 29.98 in 7.0 mi Calm Calm - N/A   Clear
3:54 AM 55.0 °F - N/A% 29.98 in 6.0 mi NNW 3.5 mph - N/A   Haze
4:54 AM 54.0 °F - N/A% 30.00 in 5.0 mi Calm Calm - N/A   Haze
5:54 AM 54.0 °F - N/A% 30.00 in 6.0 mi NE 4.6 mph - N/A   Haze
6:04 AM 53.6 °F 53.6 °F 100% 30.00 in 4.0 mi NE 3.5 mph - N/A   Scattered Clouds
6:54 AM 55.0 °F 53.6 °F 95% 30.01 in 7.0 mi NNE 3.5 mph - N/A   Partly Cloudy
7:54 AM 55.0 °F 53.6 °F 95% 30.01 in 7.0 mi North 3.5 mph - N/A   Clear
8:54 AM 60.1 °F 53.6 °F 79% 30.03 in 7.0 mi North 4.6 mph - N/A   Clear
9:54 AM 64.0 °F 55.4 °F 73% 30.04 in 7.0 mi NNW 4.6 mph - N/A   Clear
10:54 AM 66.9 °F 56.3 °F 69% 30.04 in 7.0 mi West 11.5 mph - N/A   Clear
11:54 AM 66.9 °F 57.2 °F 71% 30.05 in 7.0 mi WSW 10.4 mph - N/A   Clear
12:54 PM 68.0 °F 57.2 °F 68% 30.03 in 7.0 mi West 9.2 mph - N/A   Clear
1:54 PM 69.1 °F 57.2 °F 66% 30.01 in 7.0 mi West 10.4 mph - N/A   Clear
2:54 PM 68.0 °F 57.2 °F 68% 30.00 in 7.0 mi West 12.7 mph - N/A   Clear
3:54 PM 68.0 °F 59.2 °F 73% 29.99 in 7.0 mi West 10.4 mph - N/A   Clear
4:54 PM 66.0 °F 58.3 °F 76% 30.00 in 7.0 mi West 8.1 mph - N/A   Clear
5:54 PM 64.0 °F 60.4 °F 88% 29.99 in 7.0 mi West 5.8 mph - N/A   Clear
6:54 PM 64.0 °F 59.2 °F 84% 29.99 in 7.0 mi WNW 4.6 mph - N/A   Clear
7:15 PM - - N/A% - - North - - N/A   Unknown
7:54 PM 61.0 °F 59.5 °F 95% 30.00 in 7.0 mi WNW 4.6 mph - N/A   Clear
8:54 PM 60.1 °F 60.1 °F 100% 30.01 in 7.0 mi WNW 5.8 mph - N/A   Clear
9:54 PM 60.1 °F 59.2 °F 97% 30.01 in 6.0 mi Calm Calm - N/A   Clear
10:54 PM 59.0 °F 59.0 °F 100% 30.02 in 6.0 mi Calm Calm - N/A   Clear
11:54 PM 55.9 °F - N/A% 30.02 in 6.0 mi Calm Calm - N/A   Clear